User: anonymous   Login
Location: Unspecified
(0.0000°N, 0.0000°E)
Time: 23:49:03
(UTC+00:00)
Language:

Orbcomm G2 (FM04) - Orbit

View from above orbital plane
View from above orbital plane
View from above satellite
View from above satellite

Ground track
Ground track

The orbit data is extracted from the following two-line orbital elements,

1 25159U 98007C   17349.81359504  .00000112  00000-0  94195-4 0  9991
2 25159 107.9907 297.6025 0046865 320.8579  38.9172 14.29492616 32392
Epoch (UTC): 15 December 2017 19:31:34
Eccentricity: 0.0046865
inclination: 107.9907°
perigee height: 760 km
apogee height: 827 km
right ascension of ascending node: 297.6025°
argument of perigee: 320.8579°
revolutions per day: 14.29492616
mean anomaly at epoch: 38.9172°
orbit number at epoch: 3239

The dashed part of the orbit path shows where the satellite is in the earth's shadow,  

DLR